Time,TemperatureF,DewpointF,PressureIn,WindDirection,WindDirectionDegrees,WindSpeedMPH,WindSpeedGustMPH,Humidity,HourlyPrecipIn,Conditions,Clouds,dailyrainin,SoftwareType,DateUTC
2013-06-30 00:42:00,74.0,69.0,29.65,WSW,247,1.0,1.0,85,0.00,,,0.00,TxWx,2013-06-30 04:42:00,
2013-06-30 00:47:00,74.0,69.0,29.65,NW,315,1.0,1.0,85,0.00,,,0.00,TxWx,2013-06-30 04:47:00,
2013-06-30 00:52:00,74.0,69.0,29.66,NE,45,1.0,1.0,85,0.00,,,0.00,TxWx,2013-06-30 04:52:00,
2013-06-30 00:58:00,73.0,68.0,29.66,NE,45,1.0,1.0,86,0.00,,,0.00,TxWx,2013-06-30 04:58:00,
2013-06-30 01:03:00,73.0,69.0,29.66,ENE,67,1.0,1.0,86,0.00,,,0.00,TxWx,2013-06-30 05:03:00,
2013-06-30 01:08:00,73.0,69.0,29.66,SSW,202,1.0,1.0,87,0.00,,,0.00,TxWx,2013-06-30 05:08:00,
2013-06-30 01:14:00,73.0,69.0,29.66,NNE,22,1.0,1.0,87,0.00,,,0.00,TxWx,2013-06-30 05:14:00,
2013-06-30 01:19:00,73.0,69.0,29.66,West,270,1.0,2.0,88,0.00,,,0.00,TxWx,2013-06-30 05:19:00,
2013-06-30 01:24:00,73.0,69.0,29.66,NE,45,1.0,1.0,88,0.00,,,0.00,TxWx,2013-06-30 05:24:00,
2013-06-30 01:30:00,73.0,69.0,29.66,NE,45,1.0,2.0,88,0.00,,,0.00,TxWx,2013-06-30 05:30:00,
2013-06-30 01:35:00,73.0,69.0,29.67,NNE,22,3.0,3.0,88,0.00,,,0.00,TxWx,2013-06-30 05:35:00,
2013-06-30 01:40:00,73.0,69.0,29.67,West,270,0.0,0.0,88,0.00,,,0.00,TxWx,2013-06-30 05:40:00,
2013-06-30 01:45:00,73.0,69.0,29.67,West,270,1.0,1.0,89,0.00,,,0.00,TxWx,2013-06-30 05:45:00,
2013-06-30 01:51:00,73.0,69.0,29.67,WSW,247,0.0,1.0,89,0.00,,,0.00,TxWx,2013-06-30 05:51:00,
2013-06-30 01:56:00,73.0,70.0,29.67,WSW,247,1.0,2.0,89,0.00,,,0.00,TxWx,2013-06-30 05:56:00,
2013-06-30 02:01:00,73.0,70.0,29.67,South,180,1.0,1.0,89,0.00,,,0.00,TxWx,2013-06-30 06:01:00,
2013-06-30 02:06:00,73.0,70.0,29.67,WSW,247,0.0,0.0,89,0.00,,,0.00,TxWx,2013-06-30 06:06:00,
2013-06-30 02:12:00,72.0,69.0,29.67,ENE,67,1.0,1.0,89,0.00,,,0.00,TxWx,2013-06-30 06:12:00,
2013-06-30 02:17:00,72.0,69.0,29.67,ENE,67,1.0,1.0,90,0.00,,,0.00,TxWx,2013-06-30 06:17:00,
2013-06-30 02:22:00,72.0,69.0,29.67,WSW,247,1.0,1.0,90,0.00,,,0.00,TxWx,2013-06-30 06:22:00,
2013-06-30 02:27:00,72.0,69.0,29.67,WNW,292,1.0,1.0,90,0.00,,,0.00,TxWx,2013-06-30 06:27:00,
2013-06-30 02:33:00,72.0,69.0,29.68,West,270,1.0,1.0,90,0.00,,,0.00,TxWx,2013-06-30 06:33:00,
2013-06-30 02:38:00,72.0,69.0,29.68,NE,45,1.0,1.0,90,0.00,,,0.00,TxWx,2013-06-30 06:38:00,
2013-06-30 02:43:00,71.0,68.0,29.68,NE,45,0.0,0.0,90,0.00,,,0.00,TxWx,2013-06-30 06:43:00,
2013-06-30 02:49:00,71.0,68.0,29.67,NE,45,0.0,1.0,91,0.00,,,0.00,TxWx,2013-06-30 06:49:00,
2013-06-30 02:54:00,71.0,68.0,29.67,NNE,22,0.0,1.0,91,0.00,,,0.00,TxWx,2013-06-30 06:54:00,
2013-06-30 02:59:00,71.0,68.0,29.68,NNW,337,0.0,0.0,91,0.00,,,0.00,TxWx,2013-06-30 06:59:00,
2013-06-30 03:04:00,71.0,68.0,29.68,NE,45,1.0,1.0,91,0.00,,,0.00,TxWx,2013-06-30 07:04:00,
2013-06-30 03:10:00,71.0,68.0,29.68,West,270,1.0,1.0,91,0.00,,,0.00,TxWx,2013-06-30 07:10:00,
2013-06-30 03:15:00,71.0,68.0,29.68,NW,315,0.0,0.0,91,0.00,,,0.00,TxWx,2013-06-30 07:15:00,
2013-06-30 03:20:00,71.0,68.0,29.68,NW,315,1.0,1.0,91,0.00,,,0.00,TxWx,2013-06-30 07:20:00,
2013-06-30 03:25:00,71.0,68.0,29.68,NNE,22,1.0,1.0,92,0.00,,,0.00,TxWx,2013-06-30 07:25:00,
2013-06-30 03:30:00,71.0,68.0,29.68,NW,315,1.0,2.0,92,0.00,,,0.00,TxWx,2013-06-30 07:30:00,
2013-06-30 03:36:00,71.0,68.0,29.68,NNW,337,1.0,1.0,92,0.00,,,0.00,TxWx,2013-06-30 07:36:00,
2013-06-30 03:41:00,71.0,68.0,29.68,WNW,292,1.0,1.0,92,0.00,,,0.00,TxWx,2013-06-30 07:41:00,
2013-06-30 03:46:00,71.0,68.0,29.69,WNW,292,1.0,1.0,92,0.00,,,0.00,TxWx,2013-06-30 07:46:00,
2013-06-30 03:51:00,70.0,67.0,29.68,NNE,22,1.0,1.0,92,0.00,,,0.00,TxWx,2013-06-30 07:51:00,
2013-06-30 03:57:00,70.0,68.0,29.68,NE,45,1.0,1.0,92,0.00,,,0.00,TxWx,2013-06-30 07:57:00,
2013-06-30 04:02:00,70.0,68.0,29.68,ENE,67,0.0,1.0,92,0.00,,,0.00,TxWx,2013-06-30 08:02:00,
2013-06-30 04:07:00,70.0,68.0,29.68,NNW,337,0.0,0.0,92,0.00,,,0.00,TxWx,2013-06-30 08:07:00,
2013-06-30 04:12:00,70.0,68.0,29.68,NW,315,0.0,0.0,92,0.00,,,0.00,TxWx,2013-06-30 08:12:00,
2013-06-30 04:18:00,70.0,68.0,29.69,NW,315,0.0,0.0,92,0.00,,,0.00,TxWx,2013-06-30 08:18:00,
2013-06-30 04:23:00,70.0,68.0,29.69,North,0,0.0,0.0,92,0.00,,,0.00,TxWx,2013-06-30 08:23:00,
2013-06-30 04:28:00,70.0,68.0,29.69,SSE,157,0.0,0.0,93,0.00,,,0.00,TxWx,2013-06-30 08:28:00,
2013-06-30 04:33:00,70.0,68.0,29.69,South,180,1.0,1.0,93,0.00,,,0.00,TxWx,2013-06-30 08:33:00,
2013-06-30 04:38:00,70.0,68.0,29.69,South,180,0.0,0.0,93,0.00,,,0.00,TxWx,2013-06-30 08:38:00,
2013-06-30 04:43:00,70.0,68.0,29.70,WNW,292,2.0,2.0,93,0.00,,,0.00,TxWx,2013-06-30 08:43:00,
2013-06-30 04:49:00,70.0,68.0,29.70,NNE,22,2.0,2.0,93,0.00,,,0.00,TxWx,2013-06-30 08:49:00,
2013-06-30 04:54:00,70.0,68.0,29.70,North,0,0.0,1.0,93,0.00,,,0.00,TxWx,2013-06-30 08:54:00,
2013-06-30 04:59:00,70.0,68.0,29.70,NE,45,0.0,0.0,93,0.00,,,0.00,TxWx,2013-06-30 08:59:00,
2013-06-30 05:04:00,70.0,68.0,29.70,SW,225,1.0,1.0,93,0.00,,,0.00,TxWx,2013-06-30 09:04:00,
2013-06-30 05:09:00,70.0,68.0,29.71,WSW,247,1.0,1.0,93,0.00,,,0.00,TxWx,2013-06-30 09:09:00,
2013-06-30 05:14:00,70.0,68.0,29.70,WNW,292,1.0,1.0,94,0.00,,,0.00,TxWx,2013-06-30 09:14:00,
2013-06-30 05:20:00,70.0,68.0,29.71,NE,45,2.0,2.0,93,0.00,,,0.00,TxWx,2013-06-30 09:20:00,
2013-06-30 05:25:00,70.0,68.0,29.71,ENE,67,0.0,1.0,93,0.00,,,0.00,TxWx,2013-06-30 09:25:00,
2013-06-30 05:30:00,70.0,68.0,29.71,South,180,1.0,1.0,93,0.00,,,0.00,TxWx,2013-06-30 09:30:00,
2013-06-30 05:36:00,70.0,68.0,29.71,WSW,247,0.0,1.0,94,0.00,,,0.00,TxWx,2013-06-30 09:36:00,
2013-06-30 05:41:00,70.0,68.0,29.72,West,270,1.0,2.0,94,0.00,,,0.00,TxWx,2013-06-30 09:41:00,
2013-06-30 05:46:00,70.0,68.0,29.72,WNW,292,2.0,2.0,94,0.00,,,0.00,TxWx,2013-06-30 09:46:00,
2013-06-30 05:51:00,70.0,68.0,29.72,NE,45,1.0,1.0,94,0.00,,,0.00,TxWx,2013-06-30 09:51:00,
2013-06-30 05:56:00,69.0,67.0,29.72,WSW,247,1.0,1.0,94,0.00,,,0.00,TxWx,2013-06-30 09:56:00,
2013-06-30 06:01:00,69.0,67.0,29.72,WSW,247,1.0,1.0,94,0.00,,,0.00,TxWx,2013-06-30 10:01:00,
2013-06-30 06:07:00,69.0,67.0,29.73,NE,45,1.0,1.0,94,0.00,,,0.00,TxWx,2013-06-30 10:07:00,
2013-06-30 06:12:00,69.0,67.0,29.72,NE,45,0.0,0.0,94,0.00,,,0.00,TxWx,2013-06-30 10:12:00,
2013-06-30 06:17:00,70.0,68.0,29.72,SW,225,0.0,1.0,94,0.00,,,0.00,TxWx,2013-06-30 10:17:00,
2013-06-30 06:22:00,70.0,68.0,29.73,NW,315,1.0,1.0,94,0.00,,,0.00,TxWx,2013-06-30 10:22:00,
2013-06-30 06:28:00,70.0,68.0,29.73,NW,315,0.0,0.0,94,0.00,,,0.00,TxWx,2013-06-30 10:28:00,
2013-06-30 06:33:00,71.0,69.0,29.73,NNW,337,0.0,1.0,95,0.00,,,0.00,TxWx,2013-06-30 10:33:00,
2013-06-30 06:38:00,71.0,69.0,29.73,NW,315,1.0,1.0,95,0.00,,,0.00,TxWx,2013-06-30 10:38:00,
2013-06-30 06:43:00,71.0,69.0,29.73,NNW,337,1.0,1.0,95,0.00,,,0.00,TxWx,2013-06-30 10:43:00,
2013-06-30 06:49:00,71.0,69.0,29.73,NW,315,0.0,0.0,95,0.00,,,0.00,TxWx,2013-06-30 10:49:00,
2013-06-30 06:54:00,72.0,70.0,29.74,North,0,1.0,1.0,95,0.00,,,0.00,TxWx,2013-06-30 10:54:00,
2013-06-30 06:59:00,72.0,70.0,29.74,West,270,0.0,1.0,95,0.00,,,0.00,TxWx,2013-06-30 10:59:00,
2013-06-30 07:04:00,72.0,70.0,29.74,WNW,292,1.0,1.0,95,0.00,,,0.00,TxWx,2013-06-30 11:04:00,
2013-06-30 07:09:00,73.0,71.0,29.74,NNW,337,1.0,1.0,95,0.00,,,0.00,TxWx,2013-06-30 11:09:00,
2013-06-30 07:14:00,73.0,71.0,29.75,NNW,337,1.0,1.0,95,0.00,,,0.00,TxWx,2013-06-30 11:14:00,
2013-06-30 07:19:00,73.0,71.0,29.75,NNW,337,3.0,3.0,95,0.00,,,0.00,TxWx,2013-06-30 11:19:00,
2013-06-30 07:25:00,74.0,72.0,29.75,WNW,292,3.0,3.0,95,0.00,,,0.00,TxWx,2013-06-30 11:25:00,
2013-06-30 07:30:00,74.0,72.0,29.75,NNW,337,3.0,3.0,95,0.00,,,0.00,TxWx,2013-06-30 11:30:00,
2013-06-30 07:35:00,74.0,72.0,29.76,NNE,22,3.0,3.0,95,0.00,,,0.00,TxWx,2013-06-30 11:35:00,
2013-06-30 07:40:00,74.0,72.0,29.76,WNW,292,2.0,2.0,95,0.00,,,0.00,TxWx,2013-06-30 11:40:00,
2013-06-30 07:45:00,74.0,72.0,29.76,West,270,1.0,2.0,95,0.00,,,0.00,TxWx,2013-06-30 11:45:00,
2013-06-30 07:50:00,75.0,73.0,29.76,WSW,247,0.0,1.0,95,0.00,,,0.00,TxWx,2013-06-30 11:50:00,
2013-06-30 07:55:00,75.0,73.0,29.76,WNW,292,2.0,3.0,95,0.00,,,0.00,TxWx,2013-06-30 11:55:00,
2013-06-30 08:00:00,75.0,73.0,29.76,North,0,3.0,3.0,95,0.00,,,0.00,TxWx,2013-06-30 12:00:00,
2013-06-30 08:06:00,76.0,74.0,29.77,NNW,337,3.0,4.0,95,0.00,,,0.00,TxWx,2013-06-30 12:06:00,
2013-06-30 08:11:00,76.0,74.0,29.77,NW,315,4.0,4.0,95,0.00,,,0.00,TxWx,2013-06-30 12:11:00,
2013-06-30 08:17:00,76.0,74.0,29.77,NNW,337,2.0,2.0,95,0.00,,,0.00,TxWx,2013-06-30 12:17:00,
2013-06-30 08:22:00,76.0,74.0,29.77,NW,315,3.0,4.0,95,0.00,,,0.00,TxWx,2013-06-30 12:22:00,
2013-06-30 08:27:00,77.0,75.0,29.77,NW,315,3.0,4.0,95,0.00,,,0.00,TxWx,2013-06-30 12:27:00,
2013-06-30 08:33:00,77.0,75.0,29.77,NNW,337,1.0,3.0,95,0.00,,,0.00,TxWx,2013-06-30 12:33:00,
2013-06-30 08:38:00,77.0,75.0,29.77,ESE,112,2.0,3.0,95,0.00,,,0.00,TxWx,2013-06-30 12:38:00,
2013-06-30 08:43:00,77.0,75.0,29.77,NNW,337,3.0,3.0,94,0.00,,,0.00,TxWx,2013-06-30 12:43:00,
2013-06-30 08:48:00,78.0,76.0,29.77,North,0,1.0,2.0,94,0.00,,,0.00,TxWx,2013-06-30 12:48:00,
2013-06-30 08:53:00,78.0,76.0,29.77,NNE,22,1.0,2.0,93,0.00,,,0.00,TxWx,2013-06-30 12:53:00,
2013-06-30 08:58:00,78.0,76.0,29.77,WSW,247,3.0,4.0,93,0.00,,,0.00,TxWx,2013-06-30 12:58:00,
2013-06-30 09:04:00,79.0,76.0,29.77,NNE,22,2.0,2.0,92,0.00,,,0.00,TxWx,2013-06-30 13:04:00,
2013-06-30 09:09:00,79.0,76.0,29.77,WNW,292,2.0,3.0,91,0.00,,,0.00,TxWx,2013-06-30 13:09:00,
2013-06-30 09:14:00,79.0,75.0,29.77,WNW,292,2.0,3.0,89,0.00,,,0.00,TxWx,2013-06-30 13:14:00,
2013-06-30 09:19:00,79.0,75.0,29.77,SW,225,5.0,5.0,88,0.00,,,0.00,TxWx,2013-06-30 13:19:00,
2013-06-30 09:24:00,80.0,76.0,29.77,NW,315,3.0,3.0,87,0.00,,,0.00,TxWx,2013-06-30 13:24:00,
2013-06-30 09:30:00,80.0,75.0,29.77,WNW,292,5.0,5.0,85,0.00,,,0.00,TxWx,2013-06-30 13:30:00,
2013-06-30 09:35:00,81.0,76.0,29.77,WNW,292,3.0,3.0,84,0.00,,,0.00,TxWx,2013-06-30 13:35:00,
2013-06-30 09:40:00,81.0,75.0,29.76,WSW,247,3.0,5.0,83,0.00,,,0.00,TxWx,2013-06-30 13:40:00,
2013-06-30 09:45:00,81.0,75.0,29.77,West,270,5.0,5.0,81,0.00,,,0.00,TxWx,2013-06-30 13:45:00,
2013-06-30 09:50:00,81.0,74.0,29.77,North,0,5.0,5.0,79,0.00,,,0.00,TxWx,2013-06-30 13:50:00,
2013-06-30 09:56:00,81.0,74.0,29.77,NNE,22,5.0,5.0,79,0.00,,,0.00,TxWx,2013-06-30 13:56:00,
2013-06-30 10:01:00,82.0,74.0,29.77,NW,315,3.0,4.0,78,0.00,,,0.00,TxWx,2013-06-30 14:01:00,
2013-06-30 10:06:00,82.0,74.0,29.76,North,0,2.0,3.0,77,0.00,,,0.00,TxWx,2013-06-30 14:06:00,
2013-06-30 10:12:00,83.0,75.0,29.76,NE,45,2.0,2.0,76,0.00,,,0.00,TxWx,2013-06-30 14:12:00,
2013-06-30 10:17:00,83.0,74.0,29.76,NW,315,2.0,3.0,75,0.00,,,0.00,TxWx,2013-06-30 14:17:00,
2013-06-30 10:22:00,84.0,75.0,29.76,NNW,337,3.0,5.0,74,0.00,,,0.00,TxWx,2013-06-30 14:22:00,
2013-06-30 10:28:00,84.0,74.0,29.76,NNW,337,3.0,4.0,72,0.00,,,0.00,TxWx,2013-06-30 14:28:00,
2013-06-30 10:33:00,85.0,74.0,29.76,North,0,4.0,5.0,71,0.00,,,0.00,TxWx,2013-06-30 14:33:00,
2013-06-30 10:38:00,84.0,73.0,29.76,WNW,292,3.0,4.0,70,0.00,,,0.00,TxWx,2013-06-30 14:38:00,
2013-06-30 10:44:00,84.0,73.0,29.76,WNW,292,3.0,4.0,70,0.00,,,0.00,TxWx,2013-06-30 14:44:00,
2013-06-30 10:49:00,84.0,73.0,29.76,North,0,4.0,5.0,70,0.00,,,0.00,TxWx,2013-06-30 14:49:00,
2013-06-30 10:54:00,85.0,74.0,29.76,NNW,337,5.0,5.0,70,0.00,,,0.00,TxWx,2013-06-30 14:54:00,
2013-06-30 10:59:00,86.0,75.0,29.76,NW,315,5.0,6.0,69,0.00,,,0.00,TxWx,2013-06-30 14:59:00,
2013-06-30 11:04:00,86.0,74.0,29.76,WSW,247,3.0,3.0,68,0.00,,,0.00,TxWx,2013-06-30 15:04:00,
2013-06-30 11:09:00,86.0,73.0,29.76,NW,315,6.0,6.0,67,0.00,,,0.00,TxWx,2013-06-30 15:09:00,
2013-06-30 11:14:00,86.0,73.0,29.77,SSW,202,1.0,3.0,67,0.00,,,0.00,TxWx,2013-06-30 15:14:00,
2013-06-30 11:19:00,86.0,73.0,29.77,West,270,1.0,3.0,66,0.00,,,0.00,TxWx,2013-06-30 15:19:00,
2013-06-30 11:25:00,86.0,73.0,29.77,NNW,337,5.0,8.0,66,0.00,,,0.00,TxWx,2013-06-30 15:25:00,
2013-06-30 11:30:00,86.0,73.0,29.77,WNW,292,5.0,8.0,66,0.00,,,0.00,TxWx,2013-06-30 15:30:00,
2013-06-30 11:36:00,86.0,73.0,29.77,NW,315,3.0,4.0,66,0.00,,,0.00,TxWx,2013-06-30 15:36:00,
2013-06-30 11:41:00,86.0,73.0,29.77,NW,315,6.0,8.0,66,0.00,,,0.00,TxWx,2013-06-30 15:41:00,
2013-06-30 11:46:00,86.0,73.0,29.77,WNW,292,5.0,7.0,66,0.00,,,0.00,TxWx,2013-06-30 15:46:00,
2013-06-30 11:51:00,86.0,73.0,29.77,North,0,3.0,5.0,66,0.00,,,0.00,TxWx,2013-06-30 15:51:00,
2013-06-30 11:57:00,86.0,73.0,29.77,NW,315,3.0,3.0,66,0.00,,,0.00,TxWx,2013-06-30 15:57:00,
2013-06-30 12:02:00,86.0,73.0,29.77,WNW,292,5.0,5.0,66,0.00,,,0.00,TxWx,2013-06-30 16:02:00,
2013-06-30 12:07:00,87.0,74.0,29.77,NW,315,3.0,4.0,66,0.00,,,0.00,TxWx,2013-06-30 16:07:00,
2013-06-30 12:12:00,87.0,74.0,29.77,NNW,337,3.0,3.0,66,0.00,,,0.00,TxWx,2013-06-30 16:12:00,
2013-06-30 12:17:00,87.0,74.0,29.76,WNW,292,3.0,4.0,65,0.00,,,0.00,TxWx,2013-06-30 16:17:00,
2013-06-30 12:23:00,87.0,74.0,29.76,NW,315,3.0,3.0,65,0.00,,,0.00,TxWx,2013-06-30 16:23:00,
2013-06-30 12:28:00,88.0,75.0,29.76,West,270,3.0,3.0,66,0.00,,,0.00,TxWx,2013-06-30 16:28:00,
2013-06-30 12:33:00,88.0,75.0,29.76,WNW,292,3.0,4.0,65,0.00,,,0.00,TxWx,2013-06-30 16:33:00,
2013-06-30 12:39:00,88.0,75.0,29.76,West,270,6.0,6.0,65,0.00,,,0.00,TxWx,2013-06-30 16:39:00,
2013-06-30 12:44:00,89.0,75.0,29.76,WNW,292,3.0,4.0,65,0.00,,,0.00,TxWx,2013-06-30 16:44:00,
2013-06-30 12:49:00,89.0,75.0,29.76,NNW,337,6.0,7.0,64,0.00,,,0.00,TxWx,2013-06-30 16:49:00,
2013-06-30 12:54:00,89.0,75.0,29.76,NW,315,3.0,4.0,63,0.00,,,0.00,TxWx,2013-06-30 16:54:00,
2013-06-30 12:59:00,89.0,75.0,29.76,West,270,2.0,4.0,64,0.00,,,0.00,TxWx,2013-06-30 16:59:00,
2013-06-30 13:04:00,89.0,75.0,29.75,WNW,292,2.0,2.0,64,0.00,,,0.00,TxWx,2013-06-30 17:04:00,
2013-06-30 13:10:00,89.0,75.0,29.76,WNW,292,8.0,10.0,64,0.00,,,0.00,TxWx,2013-06-30 17:10:00,
2013-06-30 13:15:00,89.0,75.0,29.75,NW,315,7.0,8.0,64,0.00,,,0.00,TxWx,2013-06-30 17:15:00,
2013-06-30 13:20:00,89.0,75.0,29.75,NNW,337,6.0,11.0,63,0.00,,,0.00,TxWx,2013-06-30 17:20:00,
2013-06-30 13:25:00,89.0,74.0,29.75,NNW,337,5.0,8.0,63,0.00,,,0.00,TxWx,2013-06-30 17:25:00,
2013-06-30 13:30:00,89.0,74.0,29.75,NW,315,5.0,5.0,62,0.00,,,0.00,TxWx,2013-06-30 17:30:00,
2013-06-30 13:35:00,90.0,75.0,29.75,NW,315,8.0,8.0,62,0.00,,,0.00,TxWx,2013-06-30 17:35:00,
2013-06-30 13:40:00,90.0,75.0,29.75,NW,315,5.0,8.0,62,0.00,,,0.00,TxWx,2013-06-30 17:40:00,
2013-06-30 13:46:00,90.0,75.0,29.75,NW,315,4.0,6.0,62,0.00,,,0.00,TxWx,2013-06-30 17:46:00,
2013-06-30 13:51:00,90.0,75.0,29.75,WNW,292,5.0,5.0,62,0.00,,,0.00,TxWx,2013-06-30 17:51:00,
2013-06-30 13:56:00,89.0,74.0,29.75,West,270,4.0,4.0,62,0.00,,,0.00,TxWx,2013-06-30 17:56:00,
2013-06-30 14:01:00,90.0,76.0,29.75,WSW,247,6.0,6.0,63,0.00,,,0.00,TxWx,2013-06-30 18:01:00,
2013-06-30 14:07:00,89.0,74.0,29.75,WNW,292,7.0,7.0,62,0.00,,,0.00,TxWx,2013-06-30 18:07:00,
2013-06-30 14:12:00,89.0,74.0,29.75,North,0,8.0,8.0,63,0.00,,,0.00,TxWx,2013-06-30 18:12:00,
2013-06-30 14:17:00,88.0,74.0,29.75,North,0,7.0,8.0,64,0.00,,,0.00,TxWx,2013-06-30 18:17:00,
2013-06-30 14:22:00,88.0,74.0,29.75,NW,315,5.0,8.0,65,0.00,,,0.00,TxWx,2013-06-30 18:22:00,
2013-06-30 14:28:00,87.0,74.0,29.76,NW,315,4.0,8.0,65,0.00,,,0.00,TxWx,2013-06-30 18:28:00,
2013-06-30 14:33:00,87.0,74.0,29.76,WSW,247,3.0,5.0,66,0.00,,,0.00,TxWx,2013-06-30 18:33:00,
2013-06-30 14:38:00,87.0,75.0,29.75,NNW,337,3.0,5.0,68,0.00,,,0.00,TxWx,2013-06-30 18:38:00,
2013-06-30 14:43:00,85.0,74.0,29.76,NNW,337,5.0,6.0,69,0.00,,,0.00,TxWx,2013-06-30 18:43:00,
2013-06-30 14:48:00,84.0,74.0,29.77,NW,315,4.0,4.0,72,0.00,,,0.00,TxWx,2013-06-30 18:48:00,
2013-06-30 14:53:00,82.0,73.0,29.77,WNW,292,2.0,5.0,75,0.00,,,0.00,TxWx,2013-06-30 18:53:00,
2013-06-30 14:58:00,81.0,73.0,29.78,NNE,22,3.0,3.0,78,0.00,,,0.00,TxWx,2013-06-30 18:58:00,
2013-06-30 15:00:00,72.0,71.0,29.88,NE,45,2.0,2.0,97,0.00,,,0.00,TxWx,2013-06-30 19:00:00,
2013-06-30 15:01:00,72.0,71.0,29.88,NNE,22,1.0,1.0,97,0.00,,,0.00,TxWx,2013-06-30 19:01:00,
2013-06-30 15:02:00,72.0,71.0,29.88,NNE,22,1.0,1.0,97,0.00,,,0.00,TxWx,2013-06-30 19:02:00,
2013-06-30 15:03:00,80.0,73.0,29.78,North,0,3.0,7.0,79,0.00,,,0.00,TxWx,2013-06-30 19:03:00,
2013-06-30 15:04:00,72.0,71.0,29.88,West,270,1.0,1.0,97,0.00,,,0.00,TxWx,2013-06-30 19:04:00,
2013-06-30 15:05:00,72.0,71.0,29.88,WSW,247,1.0,1.0,97,0.00,,,0.00,TxWx,2013-06-30 19:05:00,
2013-06-30 15:06:00,72.0,71.0,29.88,WSW,247,0.0,1.0,97,0.00,,,0.00,TxWx,2013-06-30 19:06:00,
2013-06-30 15:07:00,72.0,71.0,29.88,WNW,292,1.0,1.0,97,0.00,,,0.00,TxWx,2013-06-30 19:07:00,
2013-06-30 15:08:00,72.0,71.0,29.88,WNW,292,1.0,1.0,97,0.00,,,0.00,TxWx,2013-06-30 19:08:00,
2013-06-30 15:09:00,79.0,72.0,29.77,NNE,22,3.0,3.0,80,0.00,,,0.00,TxWx,2013-06-30 19:09:00,
2013-06-30 15:10:00,72.0,71.0,29.88,NW,315,0.0,1.0,97,0.00,,,0.00,TxWx,2013-06-30 19:10:00,
2013-06-30 15:11:00,72.0,71.0,29.88,WNW,292,0.0,1.0,97,0.00,,,0.00,TxWx,2013-06-30 19:11:00,
2013-06-30 15:12:00,72.0,71.0,29.88,WNW,292,0.0,0.0,97,0.00,,,0.00,TxWx,2013-06-30 19:12:00,
2013-06-30 15:13:00,72.0,71.0,29.88,WSW,247,1.0,1.0,97,0.00,,,0.00,TxWx,2013-06-30 19:13:00,
2013-06-30 15:14:00,78.0,71.0,29.77,NW,315,5.0,5.0,81,0.00,,,0.00,TxWx,2013-06-30 19:14:00,
2013-06-30 15:15:00,72.0,71.0,29.88,WNW,292,1.0,1.0,97,0.00,,,0.00,TxWx,2013-06-30 19:15:00,
2013-06-30 15:16:00,72.0,71.0,29.88,SW,225,1.0,1.0,97,0.00,,,0.00,TxWx,2013-06-30 19:16:00,
2013-06-30 15:17:00,72.0,71.0,29.88,West,270,1.0,1.0,97,0.00,,,0.00,TxWx,2013-06-30 19:17:00,
2013-06-30 15:18:00,72.0,71.0,29.88,West,270,1.0,1.0,97,0.00,,,0.00,TxWx,2013-06-30 19:18:00,
2013-06-30 15:19:00,77.0,71.0,29.77,NNW,337,3.0,3.0,82,0.00,,,0.00,TxWx,2013-06-30 19:19:00,
2013-06-30 15:20:00,72.0,71.0,29.88,NNW,337,0.0,1.0,97,0.00,,,0.00,TxWx,2013-06-30 19:20:00,
2013-06-30 15:21:00,72.0,71.0,29.88,NW,315,0.0,1.0,97,0.00,,,0.00,TxWx,2013-06-30 19:21:00,
2013-06-30 15:22:00,72.0,71.0,29.88,WNW,292,1.0,1.0,97,0.00,,,0.00,TxWx,2013-06-30 19:22:00,
2013-06-30 15:23:00,72.0,71.0,29.88,NW,315,1.0,1.0,97,0.00,,,0.00,TxWx,2013-06-30 19:23:00,
2013-06-30 15:24:00,77.0,71.0,29.77,NNW,337,4.0,5.0,82,0.00,,,0.00,TxWx,2013-06-30 19:24:00,
2013-06-30 15:25:00,72.0,71.0,29.88,NNW,337,1.0,1.0,97,0.00,,,0.00,TxWx,2013-06-30 19:25:00,
2013-06-30 15:26:00,72.0,71.0,29.88,WNW,292,1.0,1.0,97,0.00,,,0.00,TxWx,2013-06-30 19:26:00,
2013-06-30 15:27:00,73.0,72.0,29.88,West,270,1.0,2.0,97,0.00,,,0.00,TxWx,2013-06-30 19:27:00,
2013-06-30 15:28:00,73.0,72.0,29.88,WNW,292,1.0,1.0,97,0.00,,,0.00,TxWx,2013-06-30 19:28:00,
2013-06-30 15:29:00,77.0,71.0,29.77,North,0,8.0,8.0,83,0.00,,,0.00,TxWx,2013-06-30 19:29:00,
2013-06-30 15:30:00,73.0,72.0,29.88,North,0,1.0,1.0,97,0.00,,,0.00,TxWx,2013-06-30 19:30:00,
2013-06-30 15:31:00,73.0,72.0,29.88,WNW,292,1.0,1.0,97,0.00,,,0.00,TxWx,2013-06-30 19:31:00,
2013-06-30 15:32:00,73.0,72.0,29.88,WNW,292,1.0,1.0,97,0.00,,,0.00,TxWx,2013-06-30 19:32:00,
2013-06-30 15:33:00,73.0,72.0,29.88,WNW,292,1.0,1.0,97,0.00,,,0.00,TxWx,2013-06-30 19:33:00,
2013-06-30 15:34:00,77.0,72.0,29.78,WNW,292,3.0,4.0,84,0.00,,,0.00,TxWx,2013-06-30 19:34:00,
2013-06-30 15:35:00,73.0,72.0,29.88,North,0,2.0,2.0,97,0.00,,,0.00,TxWx,2013-06-30 19:35:00,
2013-06-30 15:36:00,73.0,72.0,29.88,NNE,22,2.0,2.0,97,0.00,,,0.00,TxWx,2013-06-30 19:36:00,
2013-06-30 15:37:00,73.0,72.0,29.88,NW,315,1.0,1.0,97,0.00,,,0.00,TxWx,2013-06-30 19:37:00,
2013-06-30 15:38:00,73.0,72.0,29.88,NW,315,1.0,2.0,97,0.00,,,0.00,TxWx,2013-06-30 19:38:00,
2013-06-30 15:39:00,73.0,72.0,29.88,WNW,292,1.0,1.0,97,0.00,,,0.00,TxWx,2013-06-30 19:39:00,
2013-06-30 15:40:00,77.0,72.0,29.78,WNW,292,4.0,5.0,84,0.00,,,0.00,TxWx,2013-06-30 19:40:00,
2013-06-30 15:41:00,73.0,72.0,29.88,WNW,292,2.0,2.0,97,0.00,,,0.00,TxWx,2013-06-30 19:41:00,
2013-06-30 15:42:00,73.0,72.0,29.88,NW,315,1.0,2.0,97,0.00,,,0.00,TxWx,2013-06-30 19:42:00,
2013-06-30 15:43:00,73.0,72.0,29.88,WNW,292,1.0,1.0,97,0.00,,,0.00,TxWx,2013-06-30 19:43:00,
2013-06-30 15:44:00,73.0,72.0,29.88,NE,45,1.0,1.0,97,0.00,,,0.00,TxWx,2013-06-30 19:44:00,
2013-06-30 15:45:00,78.0,73.0,29.78,West,270,2.0,3.0,85,0.00,,,0.00,TxWx,2013-06-30 19:45:00,
2013-06-30 15:46:00,73.0,72.0,29.88,NNW,337,1.0,2.0,97,0.00,,,0.00,TxWx,2013-06-30 19:46:00,
2013-06-30 15:47:00,73.0,72.0,29.88,NNE,22,2.0,2.0,97,0.00,,,0.00,TxWx,2013-06-30 19:47:00,
2013-06-30 15:49:00,73.0,72.0,29.88,NE,45,1.0,1.0,98,0.00,,,0.00,TxWx,2013-06-30 19:49:00,
2013-06-30 15:50:00,78.0,73.0,29.78,NW,315,4.0,5.0,85,0.00,,,0.00,TxWx,2013-06-30 19:50:00,
2013-06-30 15:51:00,73.0,72.0,29.88,ENE,67,0.0,1.0,97,0.00,,,0.00,TxWx,2013-06-30 19:51:00,
2013-06-30 15:52:00,73.0,72.0,29.88,East,90,0.0,1.0,97,0.00,,,0.00,TxWx,2013-06-30 19:52:00,
2013-06-30 15:55:00,73.0,72.0,29.88,NE,45,0.0,1.0,97,0.00,,,0.00,TxWx,2013-06-30 19:55:00,
2013-06-30 15:56:00,78.0,73.0,29.78,North,0,3.0,3.0,85,0.00,,,0.00,TxWx,2013-06-30 19:56:00,
2013-06-30 15:58:00,73.0,72.0,29.88,South,180,1.0,1.0,97,0.00,,,0.00,TxWx,2013-06-30 19:58:00,
2013-06-30 16:01:00,78.0,73.0,29.78,WNW,292,2.0,3.0,85,0.00,,,0.00,TxWx,2013-06-30 20:01:00,
2013-06-30 16:06:00,78.0,73.0,29.79,WNW,292,3.0,3.0,85,0.00,,,0.00,TxWx,2013-06-30 20:06:00,
2013-06-30 16:11:00,78.0,73.0,29.78,WSW,247,2.0,2.0,85,0.00,,,0.00,TxWx,2013-06-30 20:11:00,
2013-06-30 16:17:00,78.0,73.0,29.78,NNE,22,2.0,2.0,85,0.00,,,0.00,TxWx,2013-06-30 20:17:00,
2013-06-30 16:22:00,79.0,74.0,29.78,WNW,292,1.0,2.0,85,0.00,,,0.00,TxWx,2013-06-30 20:22:00,
2013-06-30 16:27:00,79.0,74.0,29.78,WNW,292,1.0,2.0,85,0.00,,,0.00,TxWx,2013-06-30 20:27:00,
2013-06-30 16:32:00,78.0,73.0,29.80,NNW,337,3.0,3.0,85,0.00,,,0.00,TxWx,2013-06-30 20:32:00,
2013-06-30 16:37:00,78.0,73.0,29.81,NW,315,4.0,5.0,85,0.00,,,0.00,TxWx,2013-06-30 20:37:00,
2013-06-30 16:43:00,78.0,73.0,29.81,NW,315,3.0,4.0,85,0.00,,,0.00,TxWx,2013-06-30 20:43:00,
2013-06-30 16:48:00,78.0,73.0,29.81,NW,315,2.0,3.0,85,0.00,,,0.00,TxWx,2013-06-30 20:48:00,
2013-06-30 16:53:00,78.0,73.0,29.82,South,180,3.0,5.0,85,0.00,,,0.00,TxWx,2013-06-30 20:53:00,
2013-06-30 16:58:00,77.0,72.0,29.81,NW,315,3.0,4.0,86,0.00,,,0.00,TxWx,2013-06-30 20:58:00,
2013-06-30 17:03:00,77.0,73.0,29.81,NNW,337,3.0,5.0,87,0.00,,,0.00,TxWx,2013-06-30 21:03:00,
2013-06-30 17:09:00,76.0,72.0,29.82,NW,315,7.0,8.0,87,0.00,,,0.00,TxWx,2013-06-30 21:09:00,
2013-06-30 17:14:00,76.0,72.0,29.82,NW,315,3.0,4.0,87,0.00,,,0.00,TxWx,2013-06-30 21:14:00,
2013-06-30 17:19:00,75.0,71.0,29.83,West,270,3.0,4.0,88,0.00,,,0.00,TxWx,2013-06-30 21:19:00,
2013-06-30 17:24:00,75.0,71.0,29.83,NNW,337,5.0,5.0,88,0.00,,,0.00,TxWx,2013-06-30 21:24:00,
2013-06-30 17:30:00,74.0,70.0,29.83,WNW,292,1.0,3.0,88,0.00,,,0.00,TxWx,2013-06-30 21:30:00,
2013-06-30 17:35:00,74.0,70.0,29.83,WNW,292,2.0,2.0,89,0.00,,,0.00,TxWx,2013-06-30 21:35:00,
2013-06-30 17:40:00,74.0,71.0,29.84,WNW,292,1.0,2.0,89,0.00,,,0.00,TxWx,2013-06-30 21:40:00,
2013-06-30 17:46:00,74.0,71.0,29.84,WNW,292,3.0,3.0,90,0.00,,,0.00,TxWx,2013-06-30 21:46:00,
2013-06-30 17:51:00,74.0,71.0,29.83,NW,315,3.0,3.0,90,0.00,,,0.00,TxWx,2013-06-30 21:51:00,
2013-06-30 17:56:00,74.0,71.0,29.84,NNW,337,2.0,4.0,90,0.00,,,0.00,TxWx,2013-06-30 21:56:00,
2013-06-30 18:01:00,74.0,71.0,29.84,WSW,247,1.0,2.0,90,0.00,,,0.00,TxWx,2013-06-30 22:01:00,
2013-06-30 18:06:00,74.0,71.0,29.84,NW,315,2.0,3.0,91,0.00,,,0.00,TxWx,2013-06-30 22:06:00,
2013-06-30 18:12:00,74.0,71.0,29.83,NNW,337,3.0,5.0,91,0.00,,,0.00,TxWx,2013-06-30 22:12:00,
2013-06-30 18:17:00,74.0,71.0,29.83,West,270,2.0,3.0,91,0.00,,,0.00,TxWx,2013-06-30 22:17:00,
2013-06-30 18:23:00,74.0,71.0,29.83,WNW,292,2.0,2.0,92,0.00,,,0.00,TxWx,2013-06-30 22:23:00,
2013-06-30 18:28:00,74.0,71.0,29.82,NNE,22,3.0,3.0,92,0.00,,,0.00,TxWx,2013-06-30 22:28:00,
2013-06-30 18:33:00,74.0,72.0,29.83,North,0,3.0,4.0,92,0.00,,,0.00,TxWx,2013-06-30 22:33:00,
2013-06-30 18:39:00,74.0,72.0,29.83,North,0,3.0,4.0,92,0.00,,,0.00,TxWx,2013-06-30 22:39:00,
2013-06-30 18:44:00,74.0,72.0,29.83,NNW,337,1.0,1.0,93,0.00,,,0.00,TxWx,2013-06-30 22:44:00,
2013-06-30 18:49:00,74.0,72.0,29.83,NNE,22,1.0,2.0,93,0.00,,,0.00,TxWx,2013-06-30 22:49:00,
2013-06-30 18:54:00,74.0,72.0,29.83,West,270,3.0,3.0,93,0.00,,,0.00,TxWx,2013-06-30 22:54:00,
2013-06-30 19:00:00,74.0,72.0,29.83,NW,315,2.0,4.0,93,0.00,,,0.00,TxWx,2013-06-30 23:00:00,
2013-06-30 19:05:00,73.0,71.0,29.83,West,270,2.0,3.0,93,0.00,,,0.00,TxWx,2013-06-30 23:05:00,
2013-06-30 19:10:00,73.0,71.0,29.82,WNW,292,3.0,3.0,93,0.00,,,0.00,TxWx,2013-06-30 23:10:00,
2013-06-30 19:15:00,73.0,71.0,29.83,West,270,3.0,3.0,94,0.00,,,0.00,TxWx,2013-06-30 23:15:00,
2013-06-30 19:21:00,73.0,71.0,29.82,NW,315,1.0,1.0,94,0.00,,,0.00,TxWx,2013-06-30 23:21:00,
2013-06-30 19:26:00,73.0,71.0,29.82,North,0,4.0,5.0,94,0.00,,,0.00,TxWx,2013-06-30 23:26:00,
2013-06-30 19:31:00,73.0,71.0,29.82,NW,315,1.0,1.0,94,0.00,,,0.00,TxWx,2013-06-30 23:31:00,
2013-06-30 19:36:00,73.0,71.0,29.83,WNW,292,2.0,3.0,94,0.00,,,0.00,TxWx,2013-06-30 23:36:00,
2013-06-30 19:42:00,73.0,71.0,29.82,West,270,3.0,3.0,94,0.00,,,0.00,TxWx,2013-06-30 23:42:00,
2013-06-30 19:47:00,73.0,71.0,29.82,WNW,292,1.0,1.0,94,0.00,,,0.00,TxWx,2013-06-30 23:47:00,
2013-06-30 19:52:00,73.0,71.0,29.82,North,0,1.0,1.0,95,0.00,,,0.00,TxWx,2013-06-30 23:52:00,
2013-06-30 19:57:00,73.0,71.0,29.82,WSW,247,1.0,2.0,95,0.00,,,0.00,TxWx,2013-06-30 23:57:00,
2013-06-30 20:03:00,73.0,71.0,29.83,WSW,247,2.0,2.0,95,0.00,,,0.00,TxWx,2013-07-01 00:03:00,
2013-06-30 20:08:00,73.0,71.0,29.82,North,0,3.0,4.0,95,0.00,,,0.00,TxWx,2013-07-01 00:08:00,
2013-06-30 20:13:00,73.0,71.0,29.82,NNW,337,2.0,3.0,95,0.00,,,0.00,TxWx,2013-07-01 00:13:00,
2013-06-30 20:19:00,73.0,71.0,29.82,WSW,247,1.0,1.0,95,0.00,,,0.00,TxWx,2013-07-01 00:19:00,
2013-06-30 20:24:00,73.0,71.0,29.83,NW,315,1.0,1.0,95,0.00,,,0.00,TxWx,2013-07-01 00:24:00,
2013-06-30 20:29:00,73.0,71.0,29.83,WNW,292,1.0,2.0,95,0.00,,,0.00,TxWx,2013-07-01 00:29:00,
2013-06-30 20:35:00,73.0,71.0,29.83,NW,315,0.0,1.0,95,0.00,,,0.00,TxWx,2013-07-01 00:35:00,
2013-06-30 20:40:00,73.0,71.0,29.83,NW,315,1.0,1.0,95,0.00,,,0.00,TxWx,2013-07-01 00:40:00,
2013-06-30 20:46:00,73.0,72.0,29.83,WNW,292,1.0,1.0,96,0.00,,,0.00,TxWx,2013-07-01 00:46:00,
2013-06-30 20:51:00,73.0,72.0,29.83,WNW,292,1.0,1.0,96,0.00,,,0.00,TxWx,2013-07-01 00:51:00,
2013-06-30 20:56:00,73.0,72.0,29.83,West,270,2.0,2.0,96,0.00,,,0.00,TxWx,2013-07-01 00:56:00,
2013-06-30 21:02:00,73.0,72.0,29.83,NW,315,1.0,2.0,96,0.00,,,0.00,TxWx,2013-07-01 01:02:00,
2013-06-30 21:07:00,73.0,72.0,29.84,WNW,292,1.0,1.0,96,0.00,,,0.00,TxWx,2013-07-01 01:07:00,
2013-06-30 21:12:00,73.0,72.0,29.84,NW,315,1.0,1.0,96,0.00,,,0.00,TxWx,2013-07-01 01:12:00,
2013-06-30 21:17:00,73.0,72.0,29.84,WNW,292,1.0,2.0,96,0.00,,,0.00,TxWx,2013-07-01 01:17:00,
2013-06-30 21:23:00,73.0,72.0,29.84,NNW,337,1.0,1.0,96,0.00,,,0.00,TxWx,2013-07-01 01:23:00,
2013-06-30 21:28:00,73.0,72.0,29.85,WSW,247,2.0,3.0,96,0.00,,,0.00,TxWx,2013-07-01 01:28:00,
2013-06-30 21:33:00,73.0,72.0,29.85,West,270,1.0,1.0,96,0.00,,,0.00,TxWx,2013-07-01 01:33:00,
2013-06-30 21:38:00,73.0,72.0,29.85,West,270,1.0,2.0,96,0.00,,,0.00,TxWx,2013-07-01 01:38:00,
2013-06-30 21:43:00,73.0,72.0,29.86,WSW,247,1.0,1.0,96,0.00,,,0.00,TxWx,2013-07-01 01:43:00,
2013-06-30 21:48:00,73.0,72.0,29.86,SSE,157,0.0,1.0,96,0.00,,,0.00,TxWx,2013-07-01 01:48:00,
2013-06-30 21:54:00,73.0,72.0,29.86,South,180,1.0,2.0,96,0.00,,,0.00,TxWx,2013-07-01 01:54:00,
2013-06-30 21:59:00,73.0,72.0,29.86,SSE,157,2.0,3.0,96,0.00,,,0.00,TxWx,2013-07-01 01:59:00,
2013-06-30 22:04:00,73.0,72.0,29.86,South,180,3.0,3.0,96,0.00,,,0.00,TxWx,2013-07-01 02:04:00,
2013-06-30 22:09:00,73.0,72.0,29.86,SSW,202,1.0,2.0,96,0.00,,,0.00,TxWx,2013-07-01 02:09:00,
2013-06-30 22:15:00,73.0,72.0,29.86,NW,315,1.0,1.0,96,0.00,,,0.00,TxWx,2013-07-01 02:15:00,
2013-06-30 22:20:00,73.0,72.0,29.86,NW,315,1.0,1.0,96,0.00,,,0.00,TxWx,2013-07-01 02:20:00,
2013-06-30 22:25:00,73.0,72.0,29.86,ENE,67,2.0,2.0,96,0.00,,,0.00,TxWx,2013-07-01 02:25:00,
2013-06-30 22:30:00,73.0,72.0,29.86,SSW,202,1.0,1.0,97,0.00,,,0.00,TxWx,2013-07-01 02:30:00,
2013-06-30 22:36:00,73.0,72.0,29.86,WSW,247,1.0,1.0,97,0.00,,,0.00,TxWx,2013-07-01 02:36:00,
2013-06-30 22:41:00,73.0,72.0,29.86,SW,225,2.0,2.0,97,0.00,,,0.00,TxWx,2013-07-01 02:41:00,
2013-06-30 22:47:00,73.0,72.0,29.87,ENE,67,2.0,2.0,97,0.00,,,0.00,TxWx,2013-07-01 02:47:00,
2013-06-30 22:52:00,73.0,72.0,29.86,West,270,1.0,1.0,97,0.00,,,0.00,TxWx,2013-07-01 02:52:00,
2013-06-30 22:57:00,73.0,72.0,29.87,NE,45,1.0,2.0,97,0.00,,,0.00,TxWx,2013-07-01 02:57:00,
2013-06-30 23:02:00,73.0,72.0,29.87,ENE,67,1.0,1.0,97,0.00,,,0.00,TxWx,2013-07-01 03:02:00,
2013-06-30 23:07:00,73.0,72.0,29.88,NE,45,0.0,0.0,97,0.00,,,0.00,TxWx,2013-07-01 03:07:00,
2013-06-30 23:13:00,73.0,72.0,29.87,West,270,1.0,1.0,97,0.00,,,0.00,TxWx,2013-07-01 03:13:00,
2013-06-30 23:18:00,72.0,71.0,29.87,NNW,337,1.0,1.0,97,0.00,,,0.00,TxWx,2013-07-01 03:18:00,
2013-06-30 23:23:00,72.0,71.0,29.87,NNE,22,1.0,1.0,97,0.00,,,0.00,TxWx,2013-07-01 03:23:00,
2013-06-30 23:29:00,72.0,71.0,29.87,SSW,202,1.0,1.0,97,0.00,,,0.00,TxWx,2013-07-01 03:29:00,
2013-06-30 23:34:00,72.0,71.0,29.88,WNW,292,1.0,1.0,97,0.00,,,0.00,TxWx,2013-07-01 03:34:00,
2013-06-30 23:39:00,72.0,71.0,29.88,WNW,292,1.0,2.0,97,0.00,,,0.00,TxWx,2013-07-01 03:39:00,
2013-06-30 23:45:00,72.0,71.0,29.88,NNE,22,1.0,1.0,97,0.00,,,0.00,TxWx,2013-07-01 03:45:00,
2013-06-30 23:50:00,72.0,71.0,29.88,WSW,247,1.0,2.0,97,0.00,,,0.00,TxWx,2013-07-01 03:50:00,
2013-06-30 23:55:00,72.0,71.0,29.88,NW,315,1.0,1.0,97,0.00,,,0.00,TxWx,2013-07-01 03:55:00,